Location: *
(40.7873°S, 98.7174°E)
Time: 11:19:59
(UTC+00:00)

Kosmos-1816 - Pass Details

Date: 20 June 2024
Orbit: 959 x 1007 km, 82.9° (Epoch: 23 July)

Event Time Altitude Azimuth Distance (km) Brightness Sun altitude
Rises 13:30:32 0° 198° (SSW) 3,765 9.3 -38.1°
Reaches altitude 10° 13:33:23 10° 207° (SSW) 2,803 8.6 -38.6°
Maximum altitude 13:38:51 31° 266° (W) 1,695 7.6 -39.7°
Drops below altitude 10° 13:44:15 10° 325° (NW) 2,748 8.6 -40.7°
Sets 13:47:02 0° 335° (NNW) 3,680 9.2 -41.2°
